KE7JL Weather Reports


Display with metric or nautical units.
time (UTC)temp
F
wind
direction
speed
MPH
gust
MPH
rain 1hr
in
rain 24hr
in
rain mn
in
humidity
%
barometer
mb
20260507043334 57 165 0.0 0.0 0.00 0.00 0.00 84 1020.0
20260507040407 58 165 0.0 0.0 0.00 0.00 0.00 82 1020.0
20260507033348 58 178 0.0 0.0 0.00 0.00 0.00 83 1019.7
20260507030351 58 201 0.0 0.0 0.00 0.00 0.00 82 1019.5
20260507023339 58 202 0.0 0.0 0.00 0.00 0.00 83 1019.4
20260507020403 58 184 0.0 0.0 0.00 0.00 0.00 83 1019.3
20260507013343 58 181 0.0 0.0 0.00 0.00 0.00 83 1019.3
20260507010353 58 205 0.0 0.0 0.00 0.00 0.00 85 1019.4
20260507003333 58 194 0.0 0.0 0.00 0.00 0.00 84 1019.5
20260507000400 58 194 0.0 0.0 0.00 0.00 0.00 83 1019.5
20260506233348 58 192 0.0 0.0 0.00 0.00 0.00 83 1019.5
20260506230413 58 186 0.0 0.0 0.00 0.00 0.00 81 1019.5
20260506223344 58 196 0.0 0.0 0.00 0.00 0.00 79 1019.6
20260506220407 58 184 0.0 0.0 0.00 0.00 0.00 81 1019.9
20260506213332 58 192 0.0 0.0 0.00 0.00 0.00 82 1019.9
20260506210401 57 189 0.0 0.0 0.00 0.00 0.00 82 1019.9
20260506203348 57 203 0.0 0.0 0.00 0.00 0.00 85 1019.8
20260506200404 56 188 0.0 0.0 0.00 0.00 0.00 87 1019.7
20260506193329 55 198 0.0 0.0 0.00 0.00 0.00 92 1019.6
20260506190407 55 209 0.0 0.0 0.00 0.00 0.00 92 1019.5
20260506183331 55 158 0.0 0.0 0.00 0.00 0.00 93 1019.5
20260506180404 54 202 0.0 0.0 0.00 0.00 0.00 95 1019.4
20260506173338 55 211 0.0 0.0 0.00 0.00 0.00 94 1019.3
20260506170407 55 194 0.0 0.0 0.00 0.00 0.00 92 1019.4
20260506163326 55 200 0.0 0.0 0.00 0.00 0.00 93 1019.2
20260506160358 55 173 0.0 0.0 0.00 0.00 0.00 93 1018.7
20260506153345 55 207 0.0 0.0 0.00 0.00 0.00 94 1019.0
20260506150356 55 207 0.0 0.0 0.00 0.00 0.00 93 1018.7
20260506143342 55 192 0.0 0.0 0.00 0.00 0.00 92 1018.8
20260506140358 55 190 0.0 0.0 0.00 0.00 0.00 91 1018.5
20260506133345 56 180 0.0 0.0 0.00 0.00 0.00 92 1018.4
20260506130424 55 179 0.0 0.0 0.00 0.00 0.00 91 1018.0
20260506123330 56 175 0.0 0.0 0.00 0.00 0.00 91 1017.9
20260506120348 56 191 0.0 0.0 0.00 0.00 0.00 90 1017.7
20260506113332 56 172 0.0 0.0 0.00 0.00 0.00 90 1017.5
20260506110412 56 179 0.0 0.0 0.00 0.00 0.00 90 1017.2
20260506103340 56 159 0.0 0.0 0.00 0.00 0.00 90 1017.1
20260506100358 57 183 0.0 0.0 0.00 0.00 0.00 89 1016.9
20260506093346 57 181 0.0 0.0 0.00 0.00 0.00 89 1016.6
20260506090402 57 186 0.0 0.0 0.00 0.00 0.00 89 1016.4
20260506083328 57 174 0.0 0.0 0.00 0.00 0.00 89 1016.1
20260506080349 57 129 0.0 0.0 0.00 0.00 0.00 92 1015.9
20260506073335 56 193 0.0 0.0 0.00 0.00 0.00 92 1015.7
20260506070418 56 193 0.0 0.0 0.00 0.00 0.00 91 1015.6
20260506060402 57 193 0.0 0.0 0.00 0.00 0.00 90 1015.1
20260506050400 58 193 0.0 0.0 0.00 0.00 0.00 88 1014.5